Terminal Aerodrome Forecast
Issued by NWS New Orleans/Baton Rouge, LA

Home | Current Version | Previous Version | Text Only | Print | Product List | Glossary On
Versions: 1 2 3 4 5 6 7 8 9 10 11 12 13 14 15 16 17 18 19 20 21 22 23 24 25 26 27 28 29 30 31 32 33 34 35 36 37 38 39 40 41 42 43 44 45 46 47 48 49 50
000
FTUS44 KLIX 041700
TAFNEW
TAF
KNEW 041740Z 0418/0518 16012KT P6SM SCT028
     FM050300 19008KT 5SM BR BKN008
     FM050600 20009KT 5SM BR VCSH BKN007
     FM051100 30011KT 5SM -SHRA BKN003=

USA.gov is the U.S. government's official web portal to all federal, state and local government web resources and services.